Location: Dehesa de la Cepeda
(40.6574°N, 4.3013°W)
Time: 09:30:35
(UTC+00:00)

Cosmos 2184 Rocket - Pass Details

Date: 05 July 2020
Orbit: 960 x 1001 km, 82.9° (Epoch: 07 August)

Event Time Altitude Azimuth Distance (km) Brightness Sun altitude
Exits shadow 22:27:10 36° 179° (S) 1,497 4.5 -21.3°
Maximum altitude 22:29:56 82° 95° (E) 991 3.9 -21.5°
Drops below altitude 10° 22:36:15 10° 9° (N) 2,750 7.1 -22.1°
Sets 22:38:47 0° 9° (N) 3,708 7.9 -22.3°
